When you browse on this site, cookies collect data to enhance your experience and personalize the content and advertising you see.
Visit our Privacy Policy to learn more. By continuing to use the site, you agree to this use of cookies and data.
  • In United Kingdom
  • List of Countries
  • For 7 days
  • Water Temperature
  • Satellite Maps
  • Weather Map
  • Weather Widgets
  • user-avatar
    Login

    Hourly Weather Maubeuge

    Today, 19 April, Friday

    Time Temperature Precipitation Wind Pressure Humidity
    00:00 +12°C° 0 mm 3 mps 755 mmHg 71%
    01:00 +11°C° 0 mm 3 mps 755 mmHg 73%
    02:00 +11°C° 0 mm 3 mps 755 mmHg 75%
    03:00 +10°C° 0 mm 3 mps 755 mmHg 76%
    04:00 +10°C° 0 mm 3 mps 755 mmHg 77%
    05:00 +11°C° 0 mm 3 mps 755 mmHg 77%
    06:00 +11°C° 0 mm 3 mps 756 mmHg 78%
    07:00 +13°C° 0 mm 3 mps 756 mmHg 73%
    08:00 +16°C° 0 mm 3 mps 756 mmHg 69%
    09:00 +19°C° 0 mm 3 mps 756 mmHg 64%
    10:00 +20°C° 0 mm 3 mps 756 mmHg 59%
    11:00 +21°C° 0 mm 3 mps 757 mmHg 55%
    12:00 +22°C° 0 mm 3 mps 757 mmHg 50%
    13:00 +22°C° 0 mm 3 mps 757 mmHg 50%
    14:00 +24°C° 0 mm 3 mps 756 mmHg 51%
    15:00 +24°C° 0 mm 3 mps 756 mmHg 51%
    16:00 +21°C° 0 mm 3 mps 756 mmHg 57%
    17:00 +20°C° 0 mm 3 mps 756 mmHg 64%
    18:00 +18°C° 0 mm 3 mps 757 mmHg 70%
    19:00 +17°C° 0 mm 3 mps 757 mmHg 72%
    20:00 +16°C° 0 mm 3 mps 757 mmHg 74%
    21:00 +13°C° 0 mm 3 mps 758 mmHg 76%
    22:00 +13°C° 0 mm 3 mps 758 mmHg 76%
    23:00 +12°C° 0 mm 3 mps 758 mmHg 75%

    Tomorrow, 20 April, Saturday

    Time Temperature Precipitation Wind Pressure Humidity
    00:00 +12°C° 0 mm 3 mps 758 mmHg 74%
    01:00 +11°C° 0 mm 3 mps 757 mmHg 73%
    02:00 +11°C° 0 mm 3 mps 757 mmHg 72%
    03:00 +10°C° 0 mm 3 mps 757 mmHg 70%
    04:00 +10°C° 0 mm 3 mps 757 mmHg 71%
    05:00 +10°C° 0 mm 3 mps 758 mmHg 73%
    06:00 +10°C° 0 mm 3 mps 758 mmHg 74%
    07:00 +13°C° 0 mm 3 mps 758 mmHg 71%
    08:00 +16°C° 0 mm 3 mps 758 mmHg 68%
    09:00 +18°C° 0 mm 4 mps 758 mmHg 65%
    10:00 +19°C° 0 mm 4 mps 758 mmHg 61%
    11:00 +21°C° 0 mm 4 mps 758 mmHg 57%
    12:00 +22°C° 0 mm 5 mps 757 mmHg 52%
    13:00 +22°C° 0 mm 5 mps 757 mmHg 53%
    14:00 +22°C° 0 mm 5 mps 757 mmHg 53%
    15:00 +22°C° 0 mm 5 mps 756 mmHg 54%
    16:00 +21°C° 0 mm 4 mps 756 mmHg 59%
    17:00 +20°C° 0 mm 4 mps 756 mmHg 65%
    18:00 +18°C° 0 mm 3 mps 756 mmHg 71%
    19:00 +17°C° 0 mm 3 mps 756 mmHg 71%
    20:00 +16°C° 0 mm 3 mps 756 mmHg 71%
    21:00 +13°C° 0 mm 3 mps 756 mmHg 71%
    22:00 +12°C° 0 mm 3 mps 756 mmHg 74%
    23:00 +12°C° 0 mm 3 mps 756 mmHg 76%

    Day after tomorrow, 21 April, Sunday

    Time Temperature Precipitation Wind Pressure Humidity
    00:00 +11°C° 0 mm 3 mps 756 mmHg 79%
    01:00 +11°C° 0 mm 3 mps 755 mmHg 78%
    02:00 +10°C° 0 mm 2 mps 755 mmHg 77%
    03:00 +10°C° 0 mm 2 mps 755 mmHg 76%
    04:00 +10°C° 0 mm 2 mps 754 mmHg 77%
    05:00 +12°C° 0 mm 2 mps 754 mmHg 78%
    06:00 +12°C° 0 mm 2 mps 754 mmHg 79%
    07:00 +14°C° 0 mm 2 mps 754 mmHg 73%
    08:00 +17°C° 0 mm 2 mps 754 mmHg 68%
    09:00 +19°C° 0 mm 3 mps 753 mmHg 62%
    10:00 +20°C° 0 mm 3 mps 753 mmHg 58%
    11:00 +21°C° 0 mm 3 mps 753 mmHg 54%
    12:00 +22°C° 0 mm 4 mps 752 mmHg 51%
    13:00 +22°C° 0 mm 4 mps 752 mmHg 51%
    14:00 +22°C° 0 mm 4 mps 751 mmHg 52%
    15:00 +22°C° 0 mm 4 mps 751 mmHg 52%
    16:00 +21°C° 0 mm 3 mps 750 mmHg 59%
    17:00 +19°C° 0 mm 3 mps 750 mmHg 65%
    18:00 +18°C° 0 mm 3 mps 749 mmHg 72%
    19:00 +17°C° 0 mm 3 mps 749 mmHg 72%
    20:00 +14°C° 0 mm 3 mps 749 mmHg 73%
    21:00 +13°C° 0 mm 3 mps 749 mmHg 73%
    22:00 +12°C° 0 mm 3 mps 749 mmHg 73%
    23:00 +12°C° 0 mm 3 mps 748 mmHg 73%

    22 April, Monday

    Time Temperature Precipitation Wind Pressure Humidity
    00:00 +11°C° 0 mm 3 mps 748 mmHg 74%
    01:00 +11°C° 0 mm 3 mps 747 mmHg 73%
    02:00 +10°C° 0 mm 3 mps 747 mmHg 72%
    03:00 +10°C° 0 mm 3 mps 746 mmHg 72%
    04:00 +10°C° 0 mm 3 mps 746 mmHg 73%
    05:00 +10°C° 0 mm 3 mps 745 mmHg 74%
    06:00 +11°C° 0 mm 3 mps 745 mmHg 75%
    07:00 +13°C° 0 mm 3 mps 744 mmHg 70%
    08:00 +15°C° 0 mm 4 mps 744 mmHg 65%
    09:00 +19°C° 0 mm 4 mps 744 mmHg 60%
    10:00 +20°C° 0 mm 4 mps 743 mmHg 56%
    11:00 +21°C° 0 mm 4 mps 743 mmHg 53%
    12:00 +22°C° 0 mm 5 mps 742 mmHg 49%
    13:00 +22°C° 0 mm 4 mps 741 mmHg 50%
    14:00 +22°C° 0 mm 4 mps 741 mmHg 50%
    15:00 +22°C° 0 mm 4 mps 740 mmHg 51%
    16:00 +21°C° 0 mm 4 mps 740 mmHg 57%
    17:00 +19°C° 0 mm 3 mps 739 mmHg 63%
    18:00 +18°C° 0 mm 3 mps 739 mmHg 69%
    19:00 +16°C° 0 mm 3 mps 739 mmHg 70%
    20:00 +14°C° 0 mm 3 mps 739 mmHg 70%
    21:00 +12°C° 0 mm 3 mps 739 mmHg 71%
    22:00 +12°C° 0 mm 3 mps 738 mmHg 73%
    23:00 +11°C° 0 mm 4 mps 738 mmHg 74%

    23 April, Tuesday

    Time Temperature Precipitation Wind Pressure Humidity
    00:00 +11°C° 0 mm 4 mps 738 mmHg 75%
    01:00 +10°C° 0 mm 4 mps 738 mmHg 75%
    02:00 +8°C° 0 mm 4 mps 737 mmHg 76%
    03:00 +9°C° 0 mm 3 mps 737 mmHg 76%
    04:00 +9°C° 0 mm 3 mps 737 mmHg 77%
    05:00 +9°C° 0 mm 3 mps 737 mmHg 79%
    06:00 +9°C° 0 mm 3 mps 736 mmHg 80%
    07:00 +11°C° 0 mm 3 mps 736 mmHg 76%
    08:00 +13°C° 0 mm 3 mps 737 mmHg 71%
    09:00 +16°C° 0 mm 3 mps 737 mmHg 67%
    10:00 +17°C° 0 mm 2 mps 736 mmHg 62%
    11:00 +18°C° 0 mm 2 mps 736 mmHg 58%
    12:00 +21°C° 0 mm 1 mps 736 mmHg 53%
    13:00 +21°C° 0 mm 1 mps 736 mmHg 52%
    14:00 +21°C° 0 mm 1 mps 736 mmHg 51%
    15:00 +21°C° 0 mm 1 mps 736 mmHg 50%
    16:00 +20°C° 0 mm 1 mps 736 mmHg 55%
    17:00 +19°C° 0 mm 1 mps 736 mmHg 61%
    18:00 +18°C° 0 mm 1 mps 736 mmHg 67%
    19:00 +16°C° 0 mm 2 mps 737 mmHg 68%
    20:00 +15°C° 0 mm 2 mps 737 mmHg 70%
    21:00 +13°C° 0 mm 2 mps 737 mmHg 71%
    22:00 +13°C° 0 mm 2 mps 738 mmHg 74%
    23:00 +13°C° 0 mm 2 mps 738 mmHg 77%

    24 April, Wednesday

    Time Temperature Precipitation Wind Pressure Humidity
    00:00 +12°C° 0 mm 3 mps 738 mmHg 80%
    01:00 +12°C° 0 mm 3 mps 738 mmHg 83%
    02:00 +12°C° 0 mm 3 mps 739 mmHg 87%
    03:00 +12°C° 0 mm 3 mps 739 mmHg 91%
    04:00 +13°C° 0 mm 4 mps 739 mmHg 90%
    05:00 +13°C° 0 mm 4 mps 739 mmHg 90%
    06:00 +13°C° 0 mm 4 mps 740 mmHg 90%
    07:00 +15°C° 0.1 mm 5 mps 740 mmHg 85%
    08:00 +16°C° 0.1 mm 6 mps 741 mmHg 79%
    09:00 +18°C° 0.1 mm 7 mps 741 mmHg 74%
    10:00 +18°C° 0 mm 7 mps 742 mmHg 71%
    11:00 +20°C° 0 mm 7 mps 742 mmHg 67%
    12:00 +21°C° 0 mm 7 mps 742 mmHg 63%
    13:00 +20°C° 0.2 mm 7 mps 743 mmHg 66%
    14:00 +20°C° 0.2 mm 6 mps 743 mmHg 68%
    15:00 +20°C° 0.2 mm 6 mps 743 mmHg 70%
    16:00 +19°C° 0.4 mm 5 mps 743 mmHg 75%
    17:00 +17°C° 0.4 mm 5 mps 743 mmHg 81%
    18:00 +15°C° 0.4 mm 4 mps 743 mmHg 86%
    19:00 +15°C° 0 mm 4 mps 743 mmHg 87%
    20:00 +14°C° 0 mm 3 mps 743 mmHg 88%
    21:00 +13°C° 0 mm 3 mps 743 mmHg 89%
    22:00 +13°C° 0.1 mm 3 mps 743 mmHg 89%
    23:00 +13°C° 0.1 mm 4 mps 743 mmHg 88%
    Show more